Location: Pl�tzky
(52.0521°N, 11.8020°E)
Time: 00:26:33
(UTC+00:00)

N. Korean satellite - Pass Details

Date: 28 January 2021
Orbit: 451 x 502 km, 97.2° (Epoch: 06 March)

Event Time Altitude Azimuth Distance (km) Brightness Sun altitude
Rises 04:54:53 0° 12° (NNE) 2,514 10.3 -18.9°
Reaches altitude 10° 04:56:57 10° 12° (NNE) 1,624 9.3 -18.6°
Maximum altitude 05:00:26 84° 286° (WNW) 468 6.3 -18.1°
Drops below altitude 10° 05:03:51 10° 197° (SSW) 1,591 9.1 -17.5°
Sets 05:05:51 0° 197° (SSW) 2,455 10.1 -17.2°
